2022-08-14 00:01:22 r, 20.24m,0000000000Hz,0000682998c,0000001.482s, 030.9C,00002191
2022-08-14 00:11:22 r, 20.19m,0000000001Hz,0000650091c,0000001.411s, 030.6C,00002191
2022-08-14 00:21:24 r, 20.19m,0000000001Hz,0000649092c,0000001.409s, 030.6C,00002191
2022-08-14 00:31:22 r, 20.17m,0000000000Hz,0000639285c,0000001.387s, 030.6C,00002191
2022-08-14 00:41:21 r, 20.17m,0000000000Hz,0000635660c,0000001.379s, 030.2C,00002191
2022-08-14 00:51:22 r, 19.98m,0000000000Hz,0000534948c,0000001.161s, 030.2C,00002191
2022-08-14 01:01:23 r, 19.91m,0000000001Hz,0000502937c,0000001.091s, 029.9C,00002191
2022-08-14 01:11:21 r, 20.14m,0000000001Hz,0000618516c,0000001.342s, 029.6C,00002191
2022-08-14 01:21:21 r, 20.13m,0000000000Hz,0000616230c,0000001.337s, 029.6C,00002191
2022-08-14 01:31:24 r, 20.12m,0000000001Hz,0000610716c,0000001.325s, 029.6C,00002191
2022-08-14 01:41:21 r, 20.09m,0000000001Hz,0000592276c,0000001.285s, 029.6C,00002191
2022-08-14 01:51:24 r, 20.03m,0000000000Hz,0000561671c,0000001.219s, 029.3C,00002191
2022-08-14 02:01:22 r, 20.04m,0000000001Hz,0000568583c,0000001.234s, 029.3C,00002191
2022-08-14 02:11:21 r, 20.03m,0000000001Hz,0000557863c,0000001.211s, 029.0C,00002191
2022-08-14 02:21:24 r, 19.83m,0000000001Hz,0000466360c,0000001.012s, 029.0C,00002191
2022-08-14 02:31:22 r, 19.98m,0000000001Hz,0000534020c,0000001.159s, 028.6C,00002191
2022-08-14 02:41:21 r, 19.93m,0000000001Hz,0000511941c,0000001.111s, 028.6C,00002191
2022-08-14 02:51:22 r, 19.66m,0000000001Hz,0000401347c,0000000.871s, 028.3C,00002191
2022-08-14 03:01:23 r, 19.80m,0000000001Hz,0000452361c,0000000.982s, 028.3C,00002191
2022-08-14 03:11:21 r, 19.78m,0000000001Hz,0000444621c,0000000.965s, 028.3C,00002191
2022-08-14 03:21:21 r, 19.87m,0000000001Hz,0000482030c,0000001.046s, 028.3C,00002191
2022-08-14 03:31:24 r, 19.78m,0000000001Hz,0000444485c,0000000.965s, 028.0C,00002191
2022-08-14 03:41:22 r, 18.91m,0000000002Hz,0000200726c,0000000.436s, 028.0C,00002191
2022-08-14 03:51:21 r, 19.23m,0000000002Hz,0000270528c,0000000.587s, 027.7C,00002191
2022-08-14 04:01:24 r, 19.69m,0000000001Hz,0000410853c,0000000.892s, 027.7C,00002191
2022-08-14 04:11:21 r, 19.57m,0000000001Hz,0000365655c,0000000.794s, 027.7C,00002191
2022-08-14 04:21:21 r, 19.71m,0000000002Hz,0000417524c,0000000.906s, 027.7C,00002191
2022-08-14 04:31:22 r, 19.74m,0000000001Hz,0000430040c,0000000.933s, 027.7C,00002191
2022-08-14 04:41:21 r, 19.64m,0000000001Hz,0000391662c,0000000.850s, 027.7C,00002191
2022-08-14 04:51:22 r, 19.43m,0000000002Hz,0000323613c,0000000.702s, 027.3C,00002191
2022-08-14 05:01:22 r, 19.12m,0000000002Hz,0000243934c,0000000.529s, 027.3C,00002191
2022-08-14 05:11:22 r, 18.81m,0000000003Hz,0000183364c,0000000.398s, 027.3C,00002191
2022-08-14 05:21:22 r, 17.70m,0000000007Hz,0000065750c,0000000.143s, 027.3C,00002191
2022-08-14 05:31:23 r, 16.26m,0000000026Hz,0000017593c,0000000.038s, 027.3C,00002191
2022-08-14 05:41:21 r, 14.50m,0000000134Hz,0000000000c,0000000.000s, 027.3C,00002191
2022-08-14 05:51:22 r, 12.68m,0000000712Hz,0000000000c,0000000.000s, 027.0C,00002191
2022-08-14 06:01:24 r, 10.83m,0000003947Hz,0000000000c,0000000.000s, 027.0C,00002191
2022-08-14 06:11:21 r, 09.41m,0000014532Hz,0000000000c,0000000.000s, 027.0C,00002191
2022-08-14 06:21:22 r, 08.54m,0000032351Hz,0000000000c,0000000.000s, 027.0C,00002191
2022-08-14 06:31:22 r, 07.80m,0000064218Hz,0000000000c,0000000.000s, 027.0C,00002191
2022-08-14 06:41:22 r, 07.20m,0000111166Hz,0000000000c,0000000.000s, 027.0C,00002191
2022-08-14 06:51:22 r, 06.59m,0000196462Hz,0000000000c,0000000.000s, 027.3C,00002191
2022-08-14 07:01:22 r, 06.16m,0000291795Hz,0000000000c,0000000.000s, 028.0C,00002191
2022-08-14 07:11:22 r, 06.38m,0000236738Hz,0000000000c,0000000.000s, 028.3C,00002191
2022-08-14 07:21:22 r, 06.26m,0000264938Hz,0000000000c,0000000.000s, 028.6C,00002191
2022-08-14 07:31:23 r, 00.00m,0000422199Hz,0000000000c,0000000.000s, 029.3C,00002191
2022-08-14 07:41:22 r, 00.00m,0000501545Hz,0000000000c,0000000.000s, 029.6C,00002191
2022-08-14 07:51:22 r, 00.00m,0000596218Hz,0000000000c,0000000.000s, 030.2C,00002191
2022-08-14 08:01:24 r, 00.00m,0000596226Hz,0000000000c,0000000.000s, 030.6C,00002191
2022-08-14 08:11:22 r, 00.00m,0000580356Hz,0000000000c,0000000.000s, 030.9C,00002191
2022-08-14 08:21:22 r, 00.00m,0000563207Hz,0000000000c,0000000.000s, 030.6C,00002191
2022-08-14 08:31:24 r, 00.00m,0000416876Hz,0000000000c,0000000.000s, 030.2C,00002191
2022-08-14 08:41:22 r, 00.00m,0000533588Hz,0000000000c,0000000.000s, 030.2C,00002191
2022-08-14 08:51:22 r, 00.00m,0000579709Hz,0000000000c,0000000.000s, 030.2C,00002191
2022-08-14 09:01:22 r, 00.00m,0000596372Hz,0000000000c,0000000.000s, 030.2C,00002191
2022-08-14 09:11:23 r, 00.00m,0000495208Hz,0000000000c,0000000.000s, 030.2C,00002191
2022-08-14 09:21:22 r, 00.00m,0000596328Hz,0000000000c,0000000.000s, 030.6C,00002191
2022-08-14 09:31:23 r, 00.00m,0000596196Hz,0000000000c,0000000.000s, 030.9C,00002191
2022-08-14 09:41:22 r, 00.00m,0000596288Hz,0000000000c,0000000.000s, 031.5C,00002191
2022-08-14 09:51:22 r, 00.00m,0000596157Hz,0000000000c,0000000.000s, 031.9C,00002191
2022-08-14 10:01:23 r, 00.00m,0000585040Hz,0000000000c,0000000.000s, 031.9C,00002191
2022-08-14 10:11:24 r, 00.00m,0000596283Hz,0000000000c,0000000.000s, 031.9C,00002191
2022-08-14 10:21:22 r, 00.00m,0000596069Hz,0000000000c,0000000.000s, 032.5C,00002191
2022-08-14 10:31:24 r, 00.00m,0000596036Hz,0000000000c,0000000.000s, 033.1C,00002191
2022-08-14 10:41:22 r, 00.00m,0000595851Hz,0000000000c,0000000.000s, 034.1C,00002191
2022-08-14 10:51:22 r, 00.00m,0000595757Hz,0000000000c,0000000.000s, 035.4C,00002191
2022-08-14 11:01:22 r, 00.00m,0000595626Hz,0000000000c,0000000.000s, 036.0C,00002191
2022-08-14 11:11:23 r, 00.00m,0000595623Hz,0000000000c,0000000.000s, 036.4C,00002191
2022-08-14 11:21:22 r, 00.00m,0000595459Hz,0000000000c,0000000.000s, 037.0C,00002191
2022-08-14 11:31:23 r, 00.00m,0000595349Hz,0000000000c,0000000.000s, 038.0C,00002191
2022-08-14 11:41:23 r, 00.00m,0000595505Hz,0000000000c,0000000.000s, 037.3C,00002191
2022-08-14 11:51:22 r, 00.00m,0000595626Hz,0000000000c,0000000.000s, 037.0C,00002191
2022-08-14 12:01:23 r, 00.00m,0000595558Hz,0000000000c,0000000.000s, 037.0C,00002191
2022-08-14 12:11:24 r, 00.00m,0000595535Hz,0000000000c,0000000.000s, 037.3C,00002191
2022-08-14 12:21:22 r, 00.00m,0000595518Hz,0000000000c,0000000.000s, 037.3C,00002191
2022-08-14 12:31:24 r, 00.00m,0000595485Hz,0000000000c,0000000.000s, 037.7C,00002191
2022-08-14 12:41:23 r, 00.00m,0000595507Hz,0000000000c,0000000.000s, 037.7C,00002191
2022-08-14 12:51:22 r, 00.00m,0000595325Hz,0000000000c,0000000.000s, 038.6C,00002191
2022-08-14 13:01:24 r, 00.00m,0000595212Hz,0000000000c,0000000.000s, 039.0C,00002191
2022-08-14 13:11:23 r, 00.00m,0000595259Hz,0000000000c,0000000.000s, 039.3C,00002191
2022-08-14 13:21:22 r, 00.00m,0000595350Hz,0000000000c,0000000.000s, 039.3C,00002191
2022-08-14 13:31:23 r, 00.00m,0000595205Hz,0000000000c,0000000.000s, 039.6C,00002191
2022-08-14 13:41:24 r, 00.00m,0000595053Hz,0000000000c,0000000.000s, 041.5C,00002191
2022-08-14 13:51:22 r, 00.00m,0000594719Hz,0000000000c,0000000.000s, 043.1C,00002191
2022-08-14 14:01:23 r, 00.00m,0000594409Hz,0000000000c,0000000.000s, 044.8C,00002191
2022-08-14 14:11:23 r, 00.00m,0000594432Hz,0000000000c,0000000.000s, 045.4C,00002191
2022-08-14 14:21:22 r, 00.00m,0000594494Hz,0000000000c,0000000.000s, 045.4C,00002191
2022-08-14 14:31:24 r, 00.00m,0000594423Hz,0000000000c,0000000.000s, 045.7C,00002191
2022-08-14 14:41:23 r, 00.00m,0000594440Hz,0000000000c,0000000.000s, 045.4C,00002191
2022-08-14 14:51:22 r, 00.00m,0000594240Hz,0000000000c,0000000.000s, 046.7C,00002191
2022-08-14 15:01:24 r, 00.00m,0000594103Hz,0000000000c,0000000.000s, 048.0C,00002191
2022-08-14 15:11:23 r, 00.00m,0000593999Hz,0000000000c,0000000.000s, 048.9C,00002191
2022-08-14 15:21:22 r, 00.00m,0000593701Hz,0000000000c,0000000.000s, 050.2C,00002191
2022-08-14 15:31:23 r, 00.00m,0000593537Hz,0000000000c,0000000.000s, 050.9C,00002191
2022-08-14 15:41:23 r, 00.00m,0000593554Hz,0000000000c,0000000.000s, 050.9C,00002191
2022-08-14 15:51:22 r, 00.00m,0000593625Hz,0000000000c,0000000.000s, 051.2C,00002191
2022-08-14 16:01:22 r, 00.00m,0000593519Hz,0000000000c,0000000.000s, 051.5C,00002191
2022-08-14 16:11:24 r, 00.00m,0000593462Hz,0000000000c,0000000.000s, 051.8C,00002191
2022-08-14 16:21:22 r, 00.00m,0000593477Hz,0000000000c,0000000.000s, 051.5C,00002191
2022-08-14 16:31:24 r, 00.00m,0000593490Hz,0000000000c,0000000.000s, 051.2C,00002191
2022-08-14 16:41:23 r, 00.00m,0000593621Hz,0000000000c,0000000.000s, 051.2C,00002191
2022-08-14 16:51:22 r, 00.00m,0000593493Hz,0000000000c,0000000.000s, 050.9C,00002191
2022-08-14 17:01:24 r, 00.00m,0000593549Hz,0000000000c,0000000.000s, 050.9C,00002191
2022-08-14 17:11:23 r, 00.00m,0000593549Hz,0000000000c,0000000.000s, 050.6C,00002191
2022-08-14 17:21:22 r, 00.00m,0000593764Hz,0000000000c,0000000.000s, 049.6C,00002191
2022-08-14 17:31:23 r, 00.00m,0000593855Hz,0000000000c,0000000.000s, 048.9C,00002191
2022-08-14 17:41:24 r, 00.00m,0000594026Hz,0000000000c,0000000.000s, 048.0C,00002191
2022-08-14 17:51:22 r, 00.00m,0000593973Hz,0000000000c,0000000.000s, 048.0C,00002191
2022-08-14 18:01:23 r, 00.00m,0000594174Hz,0000000000c,0000000.000s, 047.3C,00002191
2022-08-14 18:11:23 r, 00.00m,0000594189Hz,0000000000c,0000000.000s, 047.0C,00002191
2022-08-14 18:21:22 r, 00.00m,0000594300Hz,0000000000c,0000000.000s, 046.7C,00002191
2022-08-14 18:31:25 r, 00.00m,0000594309Hz,0000000000c,0000000.000s, 046.4C,00002191
2022-08-14 18:41:23 r, 00.00m,0000594335Hz,0000000000c,0000000.000s, 046.0C,00002191
2022-08-14 18:51:22 r, 00.00m,0000594423Hz,0000000000c,0000000.000s, 046.0C,00002191
2022-08-14 19:01:25 r, 00.00m,0000594333Hz,0000000000c,0000000.000s, 045.7C,00002191
2022-08-14 19:11:23 r, 00.00m,0000594429Hz,0000000000c,0000000.000s, 045.4C,00002191
2022-08-14 19:21:22 r, 00.00m,0000537886Hz,0000000000c,0000000.000s, 045.1C,00002191
2022-08-14 19:31:23 r, 00.00m,0000474240Hz,0000000000c,0000000.000s, 044.8C,00002191
2022-08-14 19:41:24 r, 00.00m,0000414936Hz,0000000000c,0000000.000s, 044.4C,00002191
2022-08-14 19:51:22 r, 05.92m,0000361799Hz,0000000000c,0000000.000s, 043.8C,00002191
2022-08-14 20:01:22 r, 06.16m,0000292733Hz,0000000000c,0000000.000s, 042.8C,00002191
2022-08-14 20:11:25 r, 06.55m,0000203618Hz,0000000000c,0000000.000s, 041.9C,00002191
2022-08-14 20:21:22 r, 07.07m,0000125631Hz,0000000000c,0000000.000s, 040.6C,00002191
2022-08-14 20:31:24 r, 07.63m,0000075565Hz,0000000000c,0000000.000s, 039.3C,00002191
2022-08-14 20:41:23 r, 08.29m,0000040923Hz,0000000000c,0000000.000s, 038.0C,00002191
2022-08-14 20:51:22 r, 09.16m,0000018370Hz,0000000000c,0000000.000s, 037.0C,00002191
2022-08-14 21:01:22 r, 10.38m,0000005943Hz,0000000000c,0000000.000s, 036.0C,00002191
2022-08-14 21:11:23 r, 12.12m,0000001202Hz,0000000000c,0000000.000s, 035.4C,00002191
2022-08-14 21:21:22 r, 14.05m,0000000203Hz,0000000000c,0000000.000s, 034.8C,00002191
2022-08-14 21:31:22 r, 15.97m,0000000036Hz,0000013357c,0000000.029s, 034.4C,00002191
2022-08-14 21:41:24 r, 17.61m,0000000007Hz,0000060627c,0000000.132s, 034.1C,00002191
2022-08-14 21:51:22 r, 18.97m,0000000002Hz,0000210908c,0000000.458s, 033.8C,00002191
2022-08-14 22:01:22 r, 20.09m,0000000001Hz,0000592443c,0000001.286s, 033.8C,00002191
2022-08-14 22:11:25 r, 20.89m,0000000000Hz,0001224053c,0000002.656s, 033.8C,00002191
2022-08-14 22:21:22 r, 21.13m,0000000000Hz,0001522117c,0000003.303s, 033.8C,00002191
2022-08-14 22:31:22 r, 21.14m,0000000001Hz,0001529086c,0000003.318s, 033.5C,00002191
2022-08-14 22:41:25 r, 20.89m,0000000001Hz,0001215260c,0000002.637s, 033.5C,00002191
2022-08-14 22:51:22 r, 20.60m,0000000001Hz,0000935957c,0000002.031s, 033.1C,00002191
2022-08-14 23:01:22 r, 20.51m,0000000000Hz,0000868160c,0000001.884s, 033.1C,00002191
2022-08-14 23:11:23 r, 20.42m,0000000000Hz,0000795054c,0000001.725s, 032.8C,00002191
2022-08-14 23:21:22 r, 20.28m,0000000001Hz,0000699080c,0000001.517s, 032.8C,00002191
2022-08-14 23:31:22 r, 20.38m,0000000001Hz,0000762250c,0000001.654s, 032.8C,00002191
2022-08-14 23:41:23 r, 20.41m,0000000000Hz,0000793244c,0000001.721s, 032.8C,00002191
2022-08-14 23:51:22 r, 20.24m,0000000001Hz,0000673952c,0000001.463s, 032.8C,00002191
